Meridian, MS

10:24 PM CST on November 11, 2019 (GMT -0600)
Key

Weather History for KMEI - October, 2019

Change the Weather History Date:

Wednesday, October 23, 2019

  Actual Average Record
Temperature  
Mean Temperature 58 °F 62 °F  
Max Temperature 75 °F 75 °F 90 °F (1953)
Min Temperature 41 °F 48 °F 29 °F (1891)
Degree Days  
Heating Degree Days 7 5  
Month to date heating degree days 38 67  
Since 1 July heating degree days 38 74  
Cooling Degree Days 0 2  
Month to date cooling degree days 203 78  
Year to date cooling degree days 2835 2001  
Growing Degree Days 8 (Base 50)    
Moisture  
Dew Point 41 °F    
Average Humidity 66    
Maximum Humidity 89    
Minimum Humidity 25    
Precipitation  
Precipitation 0.00 in 0.13 in 2.69 in (1918)
Month to date precipitation 4.93 2.74  
Year to date precipitation 48.11 45.13  
Sea Level Pressure  
Sea Level Pressure 30.17 in    
Wind  
Wind Speed 1 mph ()    
Max Wind Speed 10 mph    
Max Gust Speed 14 mph    
Visibility 10.0 miles    
Events      
T = Trace of Precipitation, MM = Missing Value Source: Averaged Metar Reports

Daily Weather History Graph

Daily Weather History Graph

Search for Another Location

Airport or City:

Astronomy

Oct. 23, 2019 Rise Set
Actual Time 7:04 AM CDT 6:13 PM CDT
Civil Twilight 6:39 AM CDT 6:38 PM CDT
Nautical Twilight 6:10 AM CDT 7:07 PM CDT
Astronomical Twilight 5:42 AM CDT 7:35 PM CDT
Moon 1:48 AM CDT (10/23) 3:41 PM CDT (10/23)
Length of Visible Light 11h 58m
Length of Day
11h 08m
Waning Crescent, 26% of the Moon is Illuminated
Oct 23
Waning Crescent
Oct 27
New
Nov 4
First Quarter
Nov 12
Full
Nov 19
Last Quarter

Hourly Weather History & Observations

Time (CDT) Temp. Windchill Dew Point Humidity Pressure Visibility Wind Dir Wind Speed Gust Speed Precip Events Conditions
12:58 AM 46.0 °F - 42.1 °F 86% 30.16 in 10.0 mi Calm Calm - N/A   Clear
1:58 AM 44.1 °F - 41.0 °F 89% 30.17 in 10.0 mi Calm Calm - N/A   Clear
2:58 AM 44.1 °F - 39.9 °F 85% 30.17 in 10.0 mi Calm Calm - N/A   Clear
3:58 AM 43.0 °F 41.3 °F 39.9 °F 89% 30.17 in 10.0 mi South 3.5 mph - N/A   Clear
4:58 AM 43.0 °F - 39.0 °F 86% 30.18 in 10.0 mi Calm Calm - N/A   Clear
5:58 AM 42.1 °F - 39.0 °F 89% 30.19 in 10.0 mi Calm Calm - N/A   Clear
6:58 AM 41.0 °F - 37.9 °F 89% 30.18 in 10.0 mi Calm Calm - N/A   Clear
7:58 AM 43.0 °F - 39.9 °F 89% 30.19 in 10.0 mi Calm Calm - N/A   Clear
8:58 AM 50.0 °F - 45.0 °F 83% 30.21 in 10.0 mi Calm Calm - N/A   Clear
9:58 AM 60.1 °F - 45.0 °F 57% 30.21 in 10.0 mi Calm Calm - N/A   Clear
10:58 AM 66.9 °F - 39.0 °F 36% 30.21 in 10.0 mi Calm Calm - N/A   Clear
11:58 AM 70.0 °F - 37.9 °F 31% 30.20 in 10.0 mi NE 5.8 mph - N/A   Clear
12:58 PM 71.1 °F - 36.0 °F 28% 30.17 in 10.0 mi East 5.8 mph - N/A   Clear
1:58 PM 72.0 °F - 34.0 °F 25% 30.16 in 10.0 mi Variable 4.6 mph - N/A   Clear
2:58 PM 72.0 °F - 35.1 °F 26% 30.14 in 10.0 mi ESE 4.6 mph - N/A   Clear
3:58 PM 73.9 °F - 37.0 °F 26% 30.13 in 10.0 mi NNE 4.6 mph - N/A   Clear
4:58 PM 73.0 °F - 37.0 °F 27% 30.13 in 10.0 mi North 5.8 mph - N/A   Clear
5:58 PM 68.0 °F - 39.0 °F 35% 30.12 in 10.0 mi East 4.6 mph - N/A   Clear
6:58 PM 55.9 °F - 48.0 °F 75% 30.14 in 10.0 mi Calm Calm - N/A   Clear
7:58 PM 53.1 °F - 46.9 °F 80% 30.16 in 10.0 mi Calm Calm - N/A   Clear
8:58 PM 51.1 °F - 46.9 °F 86% 30.17 in 10.0 mi Calm Calm - N/A   Clear
9:58 PM 50.0 °F - 46.0 °F 86% 30.18 in 10.0 mi Calm Calm - N/A   Clear
10:58 PM 48.9 °F - 45.0 °F 86% 30.17 in 10.0 mi Calm Calm - N/A   Clear
11:58 PM 48.0 °F - 44.1 °F 86% 30.17 in 10.0 mi Calm Calm - N/A   Clear